www.pogodaiklimat.ru

Погода и климат >> Архив погоды >> Азербайджан >> Габала


ПОГОДА в Габале

  • Прогноз погоды в Габале
  • Монитор погоды в Габале

АРХИВ ПОГОДЫ в Габале

Время (UTC), дата Ветер
(напр.,м/с)
 
Видим.   Явления Облачность Т
(С)
Тd
(С)
f
(%)
Тe
(С)
Тes
(С)
Комфортность P
(гПа)
Po
(гПа)
Тmin
(С)
Tmax
(С)
R
(мм)
R24
(мм)
S
(см)
15 9.07 С 12 10 км гроза без осадков 10/10 600 м
[Cb calv]
+24.9 +17.7 64 +29 +29 душно 1004.5 930.1
18 9.07 СВ 8 4000 м гроза, ливневой дождь 10/10 600 м
[Cb calv]
+20.5 +16.2 76 +23 +23 комфорт 1007.7 932.0 +32.0 7
00 10.07 С 2 4000 м гроза без осадков 10/10 600 м
[Cb calv]
+19.3 +14.5 74 +21 +21 комфорт 1008.8 932.6
06 10.07 С 2 10 км 8/8 600 м
[Sc]
+23.1 +16.4 66 +28 +30 душно 1009.4 934.2 +18.5 13
12 10.07 ЮЗ 4 10 км 5/5 600 м
[Sc]
+28.9 +16.6 47 +32 +36 душно 1005.0 931.5
18 10.07 Ю 2 4000 м 8/8 600 м
[Sc]
+24.4 +16.6 62 +28 +28 душно 1007.8 933.0 +29.6
00 11.07 В 2 4000 м ясно +18.7 +16.7 88 +20 +20 1008.0 931.7
06 11.07 Ю 2 50 км ясно +25.6 +16.7 58 +29 +42 душно 1006.4 931.8 +18.5
12 11.07 Ю 2 10 км 3/3 600 м
[Sc]
+30.7 +17.2 44 +34 +42 очень
душно
1002.3 929.4
18 11.07 СВ 2 20 км ясно +24.9 +16.6 60 +28 +28 жарко 1004.2 928.8 +31.5
00 12.07 СВ 2 20 км ясно +22.3 +16.2 68 +26 +26 жарко 1002.0 927.1
06 12.07 СЗ 2 50 км ясно +28.1 +17.4 52 +32 +45 душно 999.9 926.0 +21.5
12 12.07 С 4 20 км 3/3 1000 м
[Sc]
+31.6 +18.0 44 +36 +41 очень
душно
997.9 925.5
18 12.07 ЮВ 4 20 км гроза без осадков 4/4 1000 м
[Cb calv]
+23.5 +16.1 63 +27 +27 душно 1004.0 929.3 +32.8
00 13.07 З 2 20 км 3/3 1000 м
[Sc]
+21.8 +17.4 76 +26 +26 душно 1006.1 930.8
06 13.07 В 2 10 км 10/10 600 м
[Sc]
+22.5 +18.1 76 +28 +28 душно 1007.2 932.0 +21.5
12 13.07 В 2 20 км 6/6 1000 м
[Sc]
+27.3 +19.0 61 +33 +37 очень
душно
1004.0 930.3
18 13.07 СВ 4 4000 м дождь 10/0 600 м
[As op]
+21.6 +18.6 83 +26 +26 душно 1008.2 932.7 +28.0 2
00 14.07 З 2 4000 м слаб. дождь 10/0 600 м
[As op]
+17.5 +16.4 93 +18 +18 1009.3 932.7
03 14.07 С 2 10 км дождь 10/0 600 м
[As op]
+17.9 +15.9 88 +18 +19 1008.8 932.4
06 14.07 ЮЗ 2 200 м туман {дождь} ?/? +17.1 +16.8 98 +17 +17 1010.0 933.5 +17.3 3
12 14.07 ЮЗ 4 10 км 8/8 600 м
[Sc]
+24.3 +16.5 62 +28 +29 душно 1008.0 933.2
18 14.07 Ю 2 4000 м 10/10 600 м
[Sc]
+21.6 +15.1 67 +25 +25 комфорт 1010.6 934.9 +24.5 0.3
00 15.07 В 2 10 км 10/10 600 м
[Sc]
+18.3 +15.4 83 +19 +19 1010.1 933.6
06 15.07 Ю 2 10 км 10/10 600 м
[Sc]
+19.5 +15.9 80 +22 +22 комфорт 1009.7 933.5 +17.9
12 15.07 З 2 10 км 10/10 600 м
[Sc]
+23.7 +16.7 65 +27 +27 жарко 1006.5 931.6
18 15.07 СВ 2 4000 м 10/10 600 м
[Sc]
+20.9 +16.1 74 +25 +25 комфорт 1005.7 930.2 +24.5
00 16.07 СВ 2 20 км ясно +18.5 +14.1 76 +20 +20 1006.6 930.4
06 16.07 В 2 50 км 3/0
[Ac trans]
+23.1 +16.4 66 +28 +38 душно 1003.8 929.0 +17.2

 

Местоположение метеостанции Габала (Азербайджан): широта 40.98 долгота 47.87 высота над уровнем моря 682 м.

В архиве по умолчанию представлена погода в Габале за последнюю неделю. Архивные данные за месяц целиком и за предыдущие месяцы, начиная с января 2011 года, Вы можете получить, выбрав интересующий диапазон дат из раскрывающегося списка и нажав кнопку "Ввод!".


*Определитесь, кто Вы:
робот инопланетянин человек

Внимание! Время в таблицах - всемирное. Для получения местного времени необходимо прибавить поправку, которая равна 4 ч.

Смотрите также архив погоды в соседних городах и на ближайших метеорологических станциях:

Погода в Геокчае (Азербайджан) (38 км)
Погода в Ахты (Дагестан, Россия) (55 км)
Погода в Шеках (Азербайджан) (64 км)
Погода в Губе (Азербайджан) (70 км)
Погода в Евлахе (Азербайджан) (73 км)
Погода в Шемахе (Азербайджан) (75 км)
Погода в Курдамире (Азербайджан) (77 км)
Погода в Касумкенте (Дагестан, Россия) (80 км)
Погода в Барде (Азербайджан) (92 км)
Погода в Маразе (Азербайджан) (102 км)

Пояснения к столбцам:

Ветер - указаны скорость ветра в м/с - средняя за 10 мин, порывы в срок и между сроками (в фигурных скобках) и направление, откуда дует ветер: С - северный, СВ - северо-восточный, В - восточный, ЮВ - юго-восточный, Ю - южный, ЮЗ - юго-западный, З - западный, СЗ - северо-западный.
Видимость - горизонтальная дальность видимости в метрах или километрах. При видимости от 1 до 10 км при отсутствии осадков обычно наблюдается дымка, при ухудшении видимости до 1 км и менее - туман. В сухую погоду видимость может ухудшаться дымом, пылью или мглою.
Явления - указаны атмосферные явления, наблюдавшиеся в срок или в последний час перед сроком; фигурными скобками обозначены явления, наблюдавшиеся между сроками (за 1-3 часа до срока); квадратными скобками обозначены град или гололедные отложения с указанием их диаметра в мм.
Облачность - указаны через наклонную черту общая и нижняя облачность в баллах и высота нижней границы облаков в метрах; квадратными скобками обозначены формы облаков: Ci - перистые, Cs - перисто-слоистые, Cc - перисто-кучевые, Ac - высококучевые, As - высокослоистые, Sc - слоисто-кучевые, Ns - слоисто-дождевые, Cu - кучевые, Cb - кучево-дождевые. Подробнее классификацию облаков см. в Атласе облаков (PDF).
T - Температура воздуха - температура, измеренная на высоте 2 м над землей.
Td - Температура точки росы - температура, при понижении до которой содержащийся в воздухе водяной пар достигнет насыщения.
f - Относительная влажность воздуха - влажноcть воздуха, измеренная на высоте 2 м над землей.
Te - Эффективная температура - температура, которую ощущает одетый по сезону человек в тени. Характеристика душности погоды. При расчете учитывается влияние влажности воздуха и скорости ветра на теплоощущения человека.
Tes - Эффективная температура на солнце - температура, которую ощущает человек, с поправкой на солнечный нагрев. Характеристика знойности погоды. Зависит от высоты солнца над горизонтом, облачности и скорости ветра. Ночью, в пасмурную погоду, а также при ветре 12 м/с и более поправка равна нулю.
P - Атмосферное давление - приведенное к уровню моря атмосферное давление.
Po - Атмосферное давление - измеренное на уровне метеостанции атмосферное давление.
Tmin - Минимальная температура - минимум температуры воздуха на высоте 2 м над землей.
Tmax - Максимальная температура - максимум температуры воздуха на высоте 2 м над землей.
R - Количество осадков - Количество выпавших осадков за период времени, мм. При наведении курсора мыши на число - период времени, за который выпало указанное количество осадков.
R24 - Количество осадков - Количество выпавших осадков за 24 часа, мм.
S - Снежный покров - Высота снежного покрова, см. При наведении курсора мыши на число - состояние снежного покрова и степень покрытия местности в баллах.